Regional Weather Roundup
Issued by NWS

Home | Current Version | Previous Version | Text Only | Print | Product List | Glossary On
Versions: 1 2 3 4 5 6 7 8 9 10 11 12 13 14 15 16 17 18 19 20 21 22 23 24 25 26 27 28 29 30 31 32 33 34 35 36 37 38 39 40 41 42 43 44 45 46 47 48 49 50
000
ASHW40 PHFO 130632
RWRHI

WEATHER ROUNDUP FOR HAWAII
NATIONAL WEATHER SERVICE HONOLULU HI
800 PM HST TUE DEC 12 2017

THIS IS AN AUTOMATED REPORT THAT HAS NOT BEEN QUALITY CONTROLLED.

NOTE..."FAIR" INDICATES FEW OR NO CLOUDS BELOW 12,000 FEET WITH NO
SIGNIFICANT WEATHER AND/OR OBSTRUCTIONS TO VISIBILITY.

* - THESE SITES REPORT LIMITED FIELDS
# - BUOY DATA PROVIDED BY PACIFIC ISLANDS OCEAN OBSERVING SYSTEM.

HIZ001>004-130700-
KAUAI-NIIHAU-

CITY           SKY/WX    TMP DP  RH WIND       PRES   REMARKS
LIHUE APT      CLOUDY    67  57  70 NW8       30.00R
PORT ALLEN*      N/A     72 N/A N/A NW10        N/A
POIPU*           N/A     68 N/A N/A NW3         N/A
PRINCEVILLE*   NOT AVBL
KOKOLE POINT*  NOT AVBL
MOLOAA DAIRY*    N/A     68  61  77 W3G10       N/A
WAIMEA HTS*    NOT AVBL
PUU OPAE*      NOT AVBL
PUU LUA*       NOT AVBL
MAKAHA RIDGE*    N/A     64  61  88 N3G12       N/A
$$

HIZ005>011-130700-
OAHU-

CITY           SKY/WX    TMP DP  RH WIND       PRES   REMARKS
HONOLULU       MOCLDY    73  61  65 N6        29.99R
KALAELOA       PTCLDY    70  63  78 NE5       30.00R
KANEOHE MCB    CLOUDY    73  65  75 NW5       29.97R
WHEELER FIELD  FAIR      68  63  83 N10       30.02S
BELLOWS*         N/A    N/A N/A N/A W5          N/A
KAHUKU*          N/A    N/A N/A N/A NW3G10      N/A
WHEELER*       NOT AVBL
WAIANAE HARBOR NOT AVBL
DILLINGHAM*    NOT AVBL
KAHUKU TRN*      N/A     84  73  70 S3G12       N/A  HX  91
KAWAILOA*        N/A     66  61  82 N3          N/A
KII*             N/A    N/A N/A N/A NW7G15      N/A
MAKUA RANGE*     N/A     79  66  65 W5G12       N/A
OAHU FOREST NW NOT AVBL
SCHOFIELD BRK*   N/A     68  61  77 MISG        N/A
SCHOFIELD S*   NOT AVBL
WAIANAE VLY*   NOT AVBL
KUAOKALA*      NOT AVBL
HONOULIUULI*   NOT AVBL
MOKUOLOE IS*   NOT AVBL
PALEHUA*       NOT AVBL
WAIAWA PHB*    NOT AVBL
$$

HIZ012>013-130700-
MOLOKAI-

CITY           SKY/WX    TMP DP  RH WIND       PRES   REMARKS
MOLOKAI AIRPT  MOCLDY    70  64  81 N7        30.02R
KALAUPAPA      NOT AVBL
MAKAPULAPAI*     N/A     70  66  88 S3          N/A
MOLOKAI 1*     NOT AVBL
PUU ALII*        N/A     56  56 100 SW1         N/A
$$

HIZ016-130700-
KAHOOLAWE-

CITY           SKY/WX    TMP DP  RH WIND       PRES   REMARKS
KAHOOLAWE*     NOT AVBL
HAKIOAWA*        N/A     70  67  90 MISG      30.41
HONOKANAIA*    NOT AVBL
KANELOA*         N/A     72  66  83 NW12G22   30.03R
KEALIALALO*    NOT AVBL
LUA MAKIKA*    NOT AVBL
$$

HIZ014>015-130700-
LANAI-

CITY           SKY/WX    TMP DP  RH WIND       PRES   REMARKS
LANAI CITY     FAIR      66  65  96 N10       30.04R
LANAI 1*       NOT AVBL
$$

HIZ017>028-130700-
MAUI-

CITY           SKY/WX    TMP DP  RH WIND       PRES   REMARKS
KAHULUI        PTCLDY    74  70  87 N13       29.98R
KAPALUA-W MAUI NOT AVBL
HANA AIRPORT   CLOUDY    68  68 100 CALM      30.02R
HANA*            N/A     72 N/A N/A W3          N/A
HALEAKALA SUMM   N/A     41  41 100 NW15        N/A
MAALAEA BAY*     N/A     72 N/A N/A N3          N/A
HALEAKALA*     NOT AVBL
KAUPO GAP*     NOT AVBL
KULA 1*          N/A     51  46  83 E5          N/A
$$

HIZ023>026-130700-
BIG ISLAND OF HAWAII COAST AND LOWER SLOPES-

CITY           SKY/WX    TMP DP  RH WIND       PRES   REMARKS
KAILUA KONA    CLEAR     75  64  68 N9        29.98R
HILO           PTCLDY    68  64  87 SW5       30.00R
HONOKAA*         N/A     68 N/A N/A VRB1        N/A
KAWAIHAE MWT*    N/A     75 N/A N/A E7          N/A
KAWAIHAE*        N/A     73 N/A N/A E8        30.00S
SOUTH POINT*     N/A     68 N/A N/A N9          N/A
UPOLU AIRPORT* NOT AVBL
KAMUELA*       MOCLDY    61  59  94 E6        30.10F
HAKALAU*         N/A     41  32  70 W3          N/A
KALOKO-HONOKO*   N/A     75  63  64 NW9       29.97S
PALI 2*          N/A     63  59  88 S5          N/A
KEALAKOMO*       N/A     75  64  69 NE12G20     N/A
KAUPULEHU*     NOT AVBL
KAPAPALA*        N/A     61  59  94 NW5         N/A
LOWER KAHUKU*    N/A    N/A N/A N/A N2G8        N/A
PUHE CS*         N/A     73  59  60 E5G10       N/A
PUHO CS*         N/A     72  61  68 NE2         N/A
PTA KEAMUKU*     N/A     55  54  94 S9          N/A
WAIKOLOA*      NOT AVBL
$$

HIZ027>028-130700-
BIG ISLAND OF HAWAII INTERIOR AND SUMMMITS-

CITY           SKY/WX    TMP DP  RH WIND       PRES   REMARKS
BRADSHAW FIELD PTCLDY    47  46  97 SE3       30.31R
MK VISITOR CEN   N/A     46  -2  13 W8          N/A
MAUNA KEA*       N/A     30 -20  10 SW31        N/A  WCI  15
MAUNA LOA*       N/A     39 -13  10 MISG        N/A
MAUNA LOA 1*   NOT AVBL
PTA KIPUKA*      N/A     48  45  87 NW3         N/A
PTA RANGE 17*    N/A     54  52  94 W3          N/A
PTA WEST*        N/A     70  66  88 SE7         N/A
NENE CABIN*      N/A     45  45 100 N3          N/A
AHUMOA*        NOT AVBL
PTA PORTABLE*  NOT AVBL
PUU MALI*        N/A    N/A N/A N/A S3          N/A
$$

HIC003-130700-
NORTHWEST ISLANDS-

CITY           SKY/WX    TMP DP  RH WIND       PRES   REMARKS
MIDWAY ISLAND    N/A     63  54  72 NE5       30.22R
MIDWAY NOS*      N/A     68 N/A N/A MISG      30.21R
FRENCH FRIGATE NOT AVBL
$$

PHZ110>124-180-130700-
BUOY REPORTS

STATION/POSITION TIME  TEMP    WIND        PRES    WAVE   SWELL
                       AIR SEA DIR/SP/G            HT/PER HT/DIR
                 (UTC) (F)     (DEG/KT/KT) (MB)    (FT/S) (FT/D)
BUOY 51001       0610   71 75  350/ 16/ 21 1017.4
BUOY 51101       0550   70 75  330/ 17/ 23 1017.2R  17/15  15/330
BUOY 51100       NOT AVBL
BUOY 51002       0610   78 79   20/ 12/ 14 1015.0
BUOY 51003       0550   74 78   30/ 16/ 17 1015.1R   6/11   5/350
BUOY 51004       0610   76 79  350/  4/  6 1015.0
WAIMEA BAY#      0532      75                N/A     7/10   3/350
MOKAPU POINT#    0604      77                N/A     5/11   3/350
LANAI#           NOT AVBL
BARBERS PT 2#    NOT AVBL
PAUWELA#         0600      78                N/A     5/11   3/330
HILO#            0557      77                N/A     6/13   3/340
KANEOHE BAY#     NOT AVBL
KANEOHE BAY 2#   NOT AVBL
HANALEI#         0552      77                N/A    12/14  11/340
KAHULUI HARBOR   0600   74 77  330/ 15/ 17 1015.1
HONOLULU HARBOR  0600   72 78   60/  2/  3 1016.5
PEARL HARBOR#    0600      77                N/A     2/ 8
KILO NALU        NOT AVBL
HILO HARBOR      0600   71 77  200/  5/  8 1015.5
MOKUOLOE         0536   70 76  280/  2/  4 1015.6R
NAWILIWILI       0600   68     250/  6/  7 1015.7
WHOTS BUOY       NOT AVBL
BUOY 51028       NOT AVBL
$$

......................KEY........................................
  SKY/WX - SKY CONDITIONS/PRESENT WEATHER
  TMP    - TEMPERATURE IN FAHRENHEIT
  DWPT   - DEWPOINT IN FAHRENHEIT
  RH     - RELATIVE HUMIDITY IN PERCENT
  WIND   - DIRECTION AND SPEED /MPH FOR ISLANDS...KTS FOR BUOYS/
  PRES   - MEAN SEA LEVEL PRESSURE IN INCHES OF HG
  VSB    - VISIBILITY IN MILES
  HX     - HEAT INDEX
  WCI    - WIND CHILL INDEX
  VRB    - VARIABLE WIND DIRECTION
  N/A    - NOT AVAILABLE




USA.gov is the U.S. government's official web portal to all federal, state and local government web resources and services.